SR5NLK-1 Weather Reports


time (UTC)temp
F
wind
direction
speed
knots
gust
knots
rain 1hr
in
rain 24hr
in
rain mn
in
humidity
%
barometer
mb
20230208163046 29 135 0.0 1.7 0.00 0.00 0.00 75 991.5
20230208162546 29 157 1.7 1.7 0.00 0.00 0.00 74 1015.6
20230208162046 29 157 0.9 1.7 0.00 0.00 0.00 74 987.2
20230208161618 30 135 0.0 0.9 0.00 0.00 0.00 74 959.8
20230208161546 30 135 0.0 0.9 0.00 0.00 0.00 74 959.8
20230208160625 30 157 0.0 0.9 0.00 0.00 0.00 73 936.9
20230208160545 30 157 0.0 0.9 0.00 0.00 0.00 73 936.9
20230208160130 30 180 0.0 1.7 0.00 0.00 0.00 73 997.8
20230208160046 30 180 0.0 1.7 0.00 0.00 0.00 73 997.8
20230208155546 31 202 0.9 1.7 0.00 0.00 0.00 73 1025.9
20230208155046 31 180 0.0 3.5 0.00 0.00 0.00 72 1056.1
20230208154625 31 180 3.5 3.5 0.00 0.00 0.00 72 979.1
20230208154546 31 180 3.5 3.5 0.00 0.00 0.00 72 979.1
20230208154046 32 157 2.6 3.5 0.00 0.00 0.00 72 1014.8
20230208153705 32 180 1.7 1.7 0.00 0.00 0.00 71 975.8
20230208153545 32 180 1.7 1.7 0.00 0.00 0.00 71 975.8
20230208153132 32 157 0.9 1.7 0.00 0.00 0.00 71 930.3
20230208153046 32 157 0.9 1.7 0.00 0.00 0.00 71 930.3
20230208152546 33 180 0.0 3.5 0.00 0.00 0.00 71 945.3
20230208152117 33 180 1.7 5.2 0.00 0.00 0.00 71 922.7
20230208152046 33 180 1.7 5.2 0.00 0.00 0.00 71 922.7
20230208151546 33 180 0.9 3.5 0.00 0.00 0.00 71 1016.6
20230208151046 34 180 3.5 4.3 0.00 0.00 0.00 71 1030.5
20230208150709 34 157 2.6 4.3 0.00 0.00 0.00 71 983.8
20230208150545 34 157 2.6 4.3 0.00 0.00 0.00 71 983.8
20230208150046 34 135 3.5 3.5 0.00 0.00 0.00 71 1001.0
20230208145120 34 247 0.0 1.7 0.00 0.00 0.00 70 1019.7
20230208145046 34 247 0.0 1.7 0.00 0.00 0.00 70 1019.7
20230208144702 34 135 0.0 1.7 0.00 0.00 0.00 70 1069.3
20230208144628 34 135 0.0 1.7 0.00 0.00 0.00 70 1069.3
20230208144546 34 135 0.0 1.7 0.00 0.00 0.00 70 1069.3
20230208144046 34 135 0.0 0.0 0.00 0.00 0.00 69 890.3
20230208143733 34 225 0.0 0.0 0.00 0.00 0.00 69 954.7
20230208143545 34 225 0.0 0.0 0.00 0.00 0.00 69 954.7
20230208143154 34 180 0.0 0.0 0.00 0.00 0.00 69 987.1
20230208143046 34 180 0.0 0.0 0.00 0.00 0.00 69 987.1
20230208142046 35 270 0.0 1.7 0.00 0.00 0.00 68 906.6
20230208141546 36 202 0.9 2.6 0.00 0.00 0.00 68 987.2
20230208141046 37 202 0.0 1.7 0.00 0.00 0.00 67 947.6
20230208140630 37 225 0.0 4.3 0.00 0.00 0.00 67 1007.3
20230208140545 37 225 0.0 4.3 0.00 0.00 0.00 67 1007.3
20230208140132 39 180 3.5 6.1 0.00 0.00 0.00 67 920.5
20230208140046 39 180 3.5 6.1 0.00 0.00 0.00 67 920.5
20230208135546 40 180 5.2 5.2 0.00 0.00 0.00 67 1024.9
20230208135151 40 180 3.5 10.4 0.00 0.00 0.00 68 979.5
20230208135046 40 180 3.5 10.4 0.00 0.00 0.00 68 979.5
20230208134627 41 247 3.5 7.0 0.00 0.00 0.00 68 945.4
20230208134546 41 247 3.5 7.0 0.00 0.00 0.00 68 945.4
20230208133545 39 157 1.7 4.3 0.00 0.00 0.00 70 971.6
20230208133046 39 157 0.0 5.2 0.00 0.00 0.00 70 977.6
20230208132546 38 180 4.3 6.1 0.00 0.00 0.00 70 973.2
20230208132046 38 157 3.5 8.7 0.00 0.00 0.00 70 950.1
20230208131546 38 180 2.6 5.2 0.00 0.00 0.00 70 910.6
20230208131046 38 135 3.5 7.8 0.00 0.00 0.00 70 931.3
20230208130642 38 180 3.5 9.6 0.00 0.00 0.00 69 895.3
20230208130545 38 180 3.5 9.6 0.00 0.00 0.00 69 895.3
20230208130157 38 157 2.6 8.7 0.00 0.00 0.00 70 993.2
20230208130046 38 157 2.6 8.7 0.00 0.00 0.00 70 993.2
20230208125546 38 90 1.7 6.1 0.00 0.00 0.00 70 999.7
20230208125140 39 157 2.6 8.7 0.00 0.00 0.00 70 906.8
20230208125046 39 157 2.6 8.7 0.00 0.00 0.00 70 906.8
20230208124546 39 135 0.0 5.2 0.00 0.00 0.00 71 878.6
20230208124046 38 135 0.0 6.1 0.00 0.00 0.00 71 977.9
20230208123631 39 157 3.5 7.0 0.00 0.00 0.00 71 1064.8
20230208123545 39 157 3.5 7.0 0.00 0.00 0.00 71 1064.8
20230208123144 39 157 2.6 7.8 0.00 0.00 0.00 72 984.2
20230208123046 39 157 2.6 7.8 0.00 0.00 0.00 72 984.2
20230208122546 38 112 1.7 7.0 0.00 0.00 0.00 72 977.9
20230208122046 38 180 6.1 8.7 0.00 0.00 0.00 72 945.4
20230208121637 38 135 4.3 7.0 0.00 0.00 0.00 72 974.7
20230208121546 38 135 4.3 7.0 0.00 0.00 0.00 72 974.7
20230208120629 38 180 4.3 10.4 0.00 0.00 0.00 72 929.9
20230208120546 38 180 4.3 10.4 0.00 0.00 0.00 72 929.9
20230208120155 39 202 7.0 7.8 0.00 0.00 0.00 72 1014.9
20230208120046 39 202 7.0 7.8 0.00 0.00 0.00 72 1014.9
20230208115546 38 202 2.6 6.1 0.00 0.00 0.00 72 935.9
20230208115144 38 135 4.3 8.7 0.00 0.00 0.00 72 1013.4
20230208115046 38 135 4.3 8.7 0.00 0.00 0.00 72 1013.4
20230208114546 39 180 7.8 7.8 0.00 0.00 0.00 72 945.1
20230208114046 39 135 0.0 9.6 0.00 0.00 0.00 72 954.7
20230208113631 39 180 5.2 7.8 0.00 0.00 0.00 73 946.9
20230208113546 39 180 5.2 7.8 0.00 0.00 0.00 73 946.9
20230208113046 40 135 6.1 9.6 0.00 0.00 0.00 74 980.8
20230208112046 40 135 0.0 7.8 0.00 0.00 0.00 76 970.1
20230208111047 40 157 1.7 5.2 0.00 0.00 0.00 77 981.0
20230208110723 40 135 3.5 3.5 0.00 0.00 0.00 78 1032.2
20230208110640 40 135 3.5 3.5 0.00 0.00 0.00 78 1032.2
20230208110546 40 135 3.5 3.5 0.00 0.00 0.00 78 1032.2
20230208110046 40 135 1.7 2.6 0.00 0.00 0.00 78 939.2
20230208105547 39 180 2.6 3.5 0.00 0.00 0.00 78 1038.3
20230208105259 39 157 4.3 5.2 0.00 0.00 0.00 79 1000.4
20230208105047 39 157 4.3 5.2 0.00 0.00 0.00 79 1000.4
20230208104624 39 157 1.7 4.3 0.00 0.00 0.00 79 886.1
20230208104547 39 157 1.7 4.3 0.00 0.00 0.00 79 886.1
20230208104047 39 202 3.5 5.2 0.00 0.00 0.00 79 936.0
20230208103739 39 180 1.7 6.1 0.00 0.00 0.00 79 939.2
20230208103701 39 180 1.7 6.1 0.00 0.00 0.00 79 939.2
20230208103546 39 180 1.7 6.1 0.00 0.00 0.00 79 939.2
20230208102547 38 157 1.7 3.5 0.00 0.00 0.00 79 902.6
20230208102047 39 180 2.6 3.5 0.00 0.00 0.00 79 1007.3
20230208101047 39 135 1.7 5.2 0.00 0.00 0.00 79 895.9
20230208100546 39 157 2.6 5.2 0.00 0.00 0.00 79 962.4
20230208100047 39 157 5.2 5.2 0.00 0.00 0.00 79 1014.0
20230208095547 39 135 3.5 5.2 0.00 0.00 0.00 80 984.1
20230208094547 39 157 2.6 6.1 0.00 0.00 0.00 81 954.7
20230208094047 39 135 0.0 4.3 0.00 0.00 0.00 81 1063.7
20230208093546 38 157 2.6 5.2 0.00 0.00 0.00 82 966.1
20230208093047 38 225 0.9 4.3 0.00 0.00 0.00 82 948.4
20230208092547 38 180 0.9 4.3 0.00 0.00 0.00 82 948.4
20230208092047 38 202 1.7 5.2 0.00 0.00 0.00 83 1010.4
20230208091646 37 157 0.9 3.5 0.00 0.00 0.00 83 978.0
20230208091547 37 157 0.9 3.5 0.00 0.00 0.00 83 978.0
20230208090802 37 157 3.5 4.3 0.00 0.00 0.00 84 991.9
20230208090546 37 157 3.5 4.3 0.00 0.00 0.00 84 991.9
20230208090247 37 157 0.9 5.2 0.00 0.00 0.00 84 932.6
20230208090047 37 157 0.9 5.2 0.00 0.00 0.00 84 932.6
20230208085547 37 180 2.6 3.5 0.00 0.00 0.00 85 944.3
20230208085047 37 135 3.5 5.2 0.00 0.00 0.00 85 1031.9
20230208084547 37 135 2.6 4.3 0.00 0.00 0.00 86 960.8
20230208084047 37 180 0.9 3.5 0.00 0.00 0.00 86 911.9
20230208083629 36 180 0.9 3.5 0.00 0.00 0.00 86 1016.6
20230208083546 36 180 0.9 3.5 0.00 0.00 0.00 86 1016.6
20230208083151 36 157 2.6 2.6 0.00 0.00 0.00 86 948.6
20230208083047 36 157 2.6 2.6 0.00 0.00 0.00 86 948.6
20230208082547 35 135 1.7 1.7 0.00 0.00 0.00 86 966.2
20230208082047 35 135 0.0 2.6 0.00 0.00 0.00 86 1049.1
20230208081547 35 135 0.0 3.5 0.00 0.00 0.00 87 939.0
20230208081047 35 112 0.9 1.7 0.00 0.00 0.00 87 971.6
20230208080743 34 90 0.0 1.7 0.00 0.00 0.00 87 977.9
20230208080546 34 90 0.0 1.7 0.00 0.00 0.00 87 977.9
20230208080141 34 202 0.0 1.7 0.00 0.00 0.00 87 1019.8
20230208080047 34 202 0.0 1.7 0.00 0.00 0.00 87 1019.8
20230208075547 34 135 0.0 1.7 0.00 0.00 0.00 87 987.2
20230208075047 34 112 0.0 2.6 0.00 0.00 0.00 87 900.3
20230208074547 33 157 0.0 2.6 0.00 0.00 0.00 87 1010.3
20230208074047 33 112 2.6 3.5 0.00 0.00 0.00 87 887.9
20230208073546 33 112 0.0 2.6 0.00 0.00 0.00 87 1013.4
20230208073047 33 135 1.7 2.6 0.00 0.00 0.00 87 993.3
20230208072547 33 135 0.9 2.6 0.00 0.00 0.00 87 944.5
20230208072047 33 135 0.0 1.7 0.00 0.00 0.00 87 941.4
20230208071547 33 67 0.0 2.6 0.00 0.00 0.00 87 891.1
20230208071047 32 67 0.0 2.6 0.00 0.00 0.00 87 993.3
20230208070546 32 112 0.9 2.6 0.00 0.00 0.00 87 939.1
20230208070047 32 90 1.7 2.6 0.00 0.00 0.00 87 957.7
20230208065547 32 112 0.0 0.9 0.00 0.00 0.00 87 900.3
20230208065047 32 135 0.0 1.7 0.00 0.00 0.00 87 999.6
20230208064547 32 90 1.7 1.7 0.00 0.00 0.00 87 930.2
20230208064047 32 135 1.7 1.7 0.00 0.00 0.00 87 971.6
20230208063546 32 112 1.7 1.7 0.00 0.00 0.00 86 974.7
20230208063048 32 90 0.0 1.7 0.00 0.00 0.00 86 993.2
20230208062547 31 135 0.9 1.7 0.00 0.00 0.00 86 923.6
20230208062047 31 90 0.9 1.7 0.00 0.00 0.00 86 903.5
20230208061047 31 22 0.0 0.9 0.00 0.00 0.00 86 1064.8
20230208060546 31 45 0.9 1.7 0.00 0.00 0.00 86 932.9
20230208060228 31 90 1.7 1.7 0.00 0.00 0.00 86 968.5
20230208060047 31 90 1.7 1.7 0.00 0.00 0.00 86 968.5
20230208055547 31 112 0.0 1.7 0.00 0.00 0.00 86 974.8
20230208055129 31 67 0.9 2.6 0.00 0.00 0.00 86 974.7
20230208055047 31 67 0.9 2.6 0.00 0.00 0.00 86 974.7
20230208054639 31 112 0.0 0.9 0.00 0.00 0.00 86 971.7
20230208054547 31 112 0.0 0.9 0.00 0.00 0.00 86 971.7
20230208054047 31 67 0.0 0.9 0.00 0.00 0.00 86 954.6
20230208053737 31 67 0.0 1.7 0.00 0.00 0.00 86 940.8
20230208053546 31 67 0.0 1.7 0.00 0.00 0.00 86 940.8
20230208053241 31 45 1.7 2.6 0.00 0.00 0.00 86 925.8
20230208053048 31 45 1.7 2.6 0.00 0.00 0.00 86 925.8
20230208052547 31 67 0.0 1.7 0.00 0.00 0.00 86 954.5
20230208052047 31 90 0.0 0.0 0.00 0.00 0.00 86 984.4
20230208051547 32 112 0.0 0.9 0.00 0.00 0.00 86 912.6
20230208051047 31 112 0.0 1.7 0.00 0.00 0.00 86 971.6
20230208050714 31 45 0.9 1.7 0.00 0.00 0.00 86 1022.8
20230208050546 31 45 0.9 1.7 0.00 0.00 0.00 86 1022.8
20230208050047 31 67 0.9 1.7 0.00 0.00 0.00 86 996.5
20230208045707 31 90 0.0 1.7 0.00 0.00 0.00 86 1001.8
20230208045547 31 90 0.0 1.7 0.00 0.00 0.00 86 1001.8
20230208044047 31 45 0.0 1.7 0.00 0.00 0.00 86 962.6
20230208043546 31 0 0.9 1.7 0.00 0.00 0.00 86 942.2
20230208043047 31 22 0.0 0.9 0.00 0.00 0.00 86 1019.6
20230208042547 31 45 0.0 0.0 0.00 0.00 0.00 86 993.3
20230208042047 31 22 0.0 0.9 0.00 0.00 0.00 86 923.8
20230208040721 31 0 0.9 0.9 0.00 0.00 0.00 86 912.8
20230208040546 31 0 0.9 0.9 0.00 0.00 0.00 86 912.8
20230208040218 31 112 0.0 0.0 0.00 0.00 0.00 86 1042.8
20230208040047 31 112 0.0 0.0 0.00 0.00 0.00 86 1042.8
20230208035547 31 67 0.0 0.0 0.00 0.00 0.00 86 969.4
20230208035209 31 67 0.0 0.9 0.00 0.00 0.00 86 900.4
20230208035047 31 67 0.0 0.9 0.00 0.00 0.00 86 900.4
20230208034048 31 292 0.0 0.0 0.00 0.00 0.00 86 891.5
20230208033733 31 292 0.0 0.0 0.00 0.00 0.00 86 954.6
20230208033547 31 292 0.0 0.0 0.00 0.00 0.00 86 954.6
20230208033047 31 270 0.0 0.9 0.00 0.00 0.00 86 923.9
20230208032548 31 45 0.0 0.0 0.00 0.00 0.00 86 993.0
20230208031047 31 270 0.0 0.0 0.00 0.00 0.00 86 950.2
20230208030722 31 292 0.0 0.0 0.00 0.00 0.00 86 992.6
20230208030547 31 292 0.0 0.0 0.00 0.00 0.00 86 992.6
20230208030048 31 337 0.0 0.9 0.00 0.00 0.00 86 949.9
20230208025548 31 292 0.0 0.0 0.00 0.00 0.00 86 951.4
20230208025229 31 337 0.0 0.9 0.00 0.00 0.00 86 971.5
20230208025048 31 337 0.0 0.9 0.00 0.00 0.00 86 971.5
20230208024048 31 315 1.7 2.6 0.00 0.00 0.00 86 900.4
20230208023709 31 337 1.7 1.7 0.00 0.00 0.00 86 944.0
20230208023547 31 337 1.7 1.7 0.00 0.00 0.00 86 944.0
20230208023134 31 0 0.9 1.7 0.00 0.00 0.00 86 943.5
20230208023048 31 0 0.9 1.7 0.00 0.00 0.00 86 943.5
20230208022547 31 292 1.7 1.7 0.00 0.00 0.00 86 928.4
20230208022047 31 315 0.0 0.9 0.00 0.00 0.00 86 973.1
20230208021048 31 0 0.9 1.7 0.00 0.00 0.00 86 922.1
20230208020547 31 270 0.0 1.7 0.00 0.00 0.00 86 888.0
20230208020138 31 22 0.9 1.7 0.00 0.00 0.00 86 917.6
20230208020048 31 22 0.9 1.7 0.00 0.00 0.00 86 917.6
20230208015642 31 337 0.0 0.9 0.00 0.00 0.00 86 971.5
20230208015548 31 337 0.0 0.9 0.00 0.00 0.00 86 971.5
20230208015141 31 270 0.0 3.5 0.00 0.00 0.00 86 954.6
20230208015047 31 270 0.0 3.5 0.00 0.00 0.00 86 954.6
20230208014047 31 270 0.9 2.6 0.00 0.00 0.00 86 936.3
20230208013547 31 292 0.9 1.7 0.00 0.00 0.00 86 915.8
20230208013203 31 337 0.9 2.6 0.00 0.00 0.00 86 1019.7
20230208013048 31 337 0.9 2.6 0.00 0.00 0.00 86 1019.7
20230208012548 31 270 0.9 2.6 0.00 0.00 0.00 86 977.9
20230208012048 31 292 1.7 2.6 0.00 0.00 0.00 85 987.2
20230208011048 31 292 1.7 3.5 0.00 0.00 0.00 85 928.1
20230208010622 31 292 0.9 2.6 0.00 0.00 0.00 85 985.1
20230208010547 31 292 0.9 2.6 0.00 0.00 0.00 85 985.1
20230208010134 31 270 0.9 1.7 0.00 0.00 0.00 85 974.8
20230208010048 31 270 0.9 1.7 0.00 0.00 0.00 85 974.8
20230208005548 31 270 0.0 1.7 0.00 0.00 0.00 85 887.3
20230208005202 31 315 1.7 1.7 0.00 0.00 0.00 85 903.5
20230208005048 31 315 1.7 1.7 0.00 0.00 0.00 85 903.5
20230208004548 31 292 0.0 1.7 0.00 0.00 0.00 85 935.1
20230208004048 31 292 0.9 1.7 0.00 0.00 0.00 85 912.7
20230208003618 31 292 0.9 0.9 0.00 0.00 0.00 85 945.3
20230208003547 31 292 0.9 0.9 0.00 0.00 0.00 85 945.3
20230208003048 31 292 0.0 1.7 0.00 0.00 0.00 85 1007.5
20230208002642 31 292 0.9 0.9 0.00 0.00 0.00 85 987.3
20230208002548 31 292 0.9 0.9 0.00 0.00 0.00 85 987.3
20230208002119 31 292 0.0 1.7 0.00 0.00 0.00 85 1029.1
20230208002048 31 292 0.0 1.7 0.00 0.00 0.00 85 1029.1
20230208001719 31 292 0.0 0.9 0.00 0.00 0.00 84 957.6
20230208001646 31 292 0.0 0.9 0.00 0.00 0.00 84 957.6
20230208001548 31 292 0.0 0.9 0.00 0.00 0.00 84 957.6
20230208001048 31 292 0.9 0.9 0.00 0.00 0.00 84 951.5
20230208000547 31 292 0.0 1.7 0.00 0.00 0.00 84 936.0
20230208000048 32 292 0.9 1.7 0.00 0.00 0.00 84 948.5
20230207235548 32 292 1.7 1.7 0.00 0.00 0.00 84 929.8
20230207235048 32 315 1.7 1.7 0.00 0.00 0.00 84 909.7
20230207234633 32 292 0.0 0.9 0.00 0.00 0.00 84 1020.3
20230207234553 32 292 0.0 0.9 0.00 0.00 0.00 84 1020.3
20230207234551 32 292 0.0 0.9 0.00 0.00 0.00 84 1020.3
20230207234548 32 292 0.0 0.9 0.00 0.00 0.00 84 1020.3
20230207234048 32 270 0.0 1.7 0.00 0.00 0.00 84 982.0
20230207233721 32 292 1.7 1.7 0.00 0.00 0.00 84 955.3
20230207233547 32 292 1.7 1.7 0.00 0.00 0.00 84 955.3
20230207233154 32 270 0.0 0.9 0.00 0.00 0.00 84 989.9
20230207233048 32 270 0.0 0.9 0.00 0.00 0.00 84 989.9
20230207232548 32 270 0.9 0.9 0.00 0.00 0.00 84 933.0
20230207232048 32 180 0.0 0.0 0.00 0.00 0.00 84 987.1
20230207231548 32 180 0.0 0.0 0.00 0.00 0.00 84 960.8
20230207231048 32 202 0.0 0.0 0.00 0.00 0.00 84 1007.7
20230207230654 32 247 0.0 0.0 0.00 0.00 0.00 84 929.9
20230207230547 32 247 0.0 0.0 0.00 0.00 0.00 84 929.9
20230207230048 32 247 0.0 0.0 0.00 0.00 0.00 84 965.9
20230207225548 32 292 0.0 0.0 0.00 0.00 0.00 84 942.3
20230207225048 32 292 0.0 0.0 0.00 0.00 0.00 84 987.5
20230207224709 32 292 0.0 0.0 0.00 0.00 0.00 84 965.9
20230207224548 32 292 0.0 0.0 0.00 0.00 0.00 84 965.9
20230207224048 32 292 0.0 0.0 0.00 0.00 0.00 84 969.0
20230207223748 32 292 0.0 1.7 0.00 0.00 0.00 84 980.5
20230207223547 32 292 0.0 1.7 0.00 0.00 0.00 84 980.5
20230207223150 32 315 0.0 1.7 0.00 0.00 0.00 84 903.4
20230207223048 32 315 0.0 1.7 0.00 0.00 0.00 84 903.4
20230207222548 32 22 0.0 0.0 0.00 0.00 0.00 84 942.2
20230207222048 32 112 0.0 0.0 0.00 0.00 0.00 84 900.9
20230207221705 32 22 0.0 0.9 0.00 0.00 0.00 84 962.2
20230207221548 32 22 0.0 0.9 0.00 0.00 0.00 84 962.2
20230207221048 32 315 0.9 3.5 0.00 0.00 0.00 84 1008.9
20230207220725 32 270 1.7 2.6 0.00 0.00 0.00 84 965.4
20230207220547 32 270 1.7 2.6 0.00 0.00 0.00 84 965.4
20230207215548 32 292 0.9 1.7 0.00 0.00 0.00 84 933.5
20230207215143 31 270 0.0 2.6 0.00 0.00 0.00 84 974.7
20230207215048 31 270 0.0 2.6 0.00 0.00 0.00 84 974.7
20230207214548 32 292 0.0 3.5 0.00 0.00 0.00 84 970.1
20230207214130 32 337 0.9 4.3 0.00 0.00 0.00 84 1025.9
20230207214048 32 337 0.9 4.3 0.00 0.00 0.00 84 1025.9
20230207213727 31 270 2.6 5.2 0.00 0.00 0.00 84 971.7
20230207213547 31 270 2.6 5.2 0.00 0.00 0.00 84 971.7
20230207213048 31 270 0.0 4.3 0.00 0.00 0.00 84 915.8
20230207212548 31 337 1.7 3.5 0.00 0.00 0.00 84 977.9
20230207212048 31 315 0.9 3.5 0.00 0.00 0.00 84 984.1
20230207211647 32 315 2.6 4.3 0.00 0.00 0.00 84 945.3
20230207211548 32 315 2.6 4.3 0.00 0.00 0.00 84 945.3
20230207211048 32 315 5.2 6.1 0.00 0.00 0.00 84 932.9
20230207210802 32 315 2.6 6.1 0.00 0.00 0.00 84 970.1
20230207210547 32 315 2.6 6.1 0.00 0.00 0.00 84 970.1
20230207210048 32 292 2.6 6.1 0.00 0.00 0.00 84 942.2
20230207205548 32 292 3.5 3.5 0.00 0.00 0.00 84 936.2
20230207204548 32 292 4.3 4.3 0.00 0.00 0.00 84 983.1
20230207204048 32 292 4.3 4.3 0.00 0.00 0.00 84 974.7
20230207203547 32 315 2.6 4.3 0.00 0.00 0.00 84 1039.7
20230207203048 32 270 4.3 6.1 0.00 0.00 0.00 84 952.1
20230207202548 32 292 3.5 4.3 0.00 0.00 0.00 84 1022.8
20230207202048 32 315 2.6 4.3 0.00 0.00 0.00 84 1055.2
20230207201548 32 292 4.3 6.1 0.00 0.00 0.00 84 916.3
20230207201048 32 292 4.3 4.3 0.00 0.00 0.00 84 990.4
20230207200547 32 292 0.9 6.1 0.00 0.00 0.00 84 1052.2
20230207200048 32 270 2.6 5.2 0.00 0.00 0.00 84 979.1
20230207195548 32 270 1.7 5.2 0.00 0.00 0.00 84 986.5
20230207195048 32 270 1.7 4.3 0.00 0.00 0.00 84 940.2
20230207194548 32 292 4.3 5.2 0.00 0.00 0.00 84 1004.1
20230207194048 32 292 2.6 7.0 0.00 0.00 0.00 84 961.5
20230207193547 32 292 1.7 7.0 0.00 0.00 0.00 84 984.0
20230207193048 32 292 1.7 6.1 0.00 0.00 0.00 84 941.7
20230207192048 32 292 7.0 7.0 0.00 0.00 0.00 84 929.8
20230207191048 32 292 3.5 6.1 0.00 0.00 0.00 84 898.9
20230207190547 32 292 6.1 7.0 0.00 0.00 0.00 84 969.9
20230207190048 32 292 2.6 5.2 0.00 0.00 0.00 84 1045.9
20230207185548 32 315 2.6 7.0 0.00 0.00 0.00 84 987.1
20230207185049 32 270 3.5 5.2 0.00 0.00 0.00 84 987.4
20230207184548 32 270 2.6 5.2 0.00 0.00 0.00 84 974.6
20230207183547 32 292 0.9 6.1 0.00 0.00 0.00 84 964.6
20230207183048 32 0 2.6 5.2 0.00 0.00 0.00 84 946.4
20230207182548 32 292 2.6 5.2 0.00 0.00 0.00 84 1025.9
20230207182049 32 337 3.5 6.1 0.00 0.00 0.00 84 982.8
20230207181548 32 292 3.5 7.0 0.00 0.00 0.00 84 942.3
20230207181049 32 292 2.6 4.3 0.00 0.00 0.00 84 949.1
20230207180548 32 292 3.5 6.1 0.00 0.00 0.00 84 958.7
20230207180048 32 292 2.6 6.1 0.00 0.00 0.00 84 900.4
20230207175548 32 270 5.2 11.3 0.00 0.00 0.00 84 926.7
20230207174548 32 292 2.6 6.1 0.00 0.00 0.00 84 942.2
20230207174049 32 292 3.5 6.1 0.00 0.00 0.00 84 943.6
20230207173548 33 292 2.6 6.1 0.00 0.00 0.00 83 1067.9
20230207173048 33 337 2.6 6.1 0.00 0.00 0.00 83 982.6
20230207172548 33 315 6.1 7.8 0.00 0.00 0.00 83 932.9
20230207172048 33 292 2.6 7.8 0.00 0.00 0.00 83 932.9
20230207171548 33 292 5.2 6.1 0.00 0.00 0.00 83 984.1
20230207171048 33 292 6.1 6.1 0.00 0.00 0.00 83 984.1
20230207170548 33 292 3.5 5.2 0.00 0.00 0.00 83 1087.7
20230207170049 33 292 2.6 7.0 0.00 0.00 0.00 83 1022.8
20230207165640 33 292 3.5 7.0 0.00 0.00 0.00 84 987.1
20230207165548 33 292 3.5 7.0 0.00 0.00 0.00 84 987.1
20230207165049 33 270 1.7 8.7 0.00 0.00 0.00 84 940.9
20230207164620 33 270 2.6 4.3 0.00 0.00 0.00 84 1015.7
20230207164548 33 270 2.6 4.3 0.00 0.00 0.00 84 1015.7
20230207163621 33 292 5.2 6.1 0.00 0.00 0.00 84 968.5
20230207163548 33 292 5.2 6.1 0.00 0.00 0.00 84 968.5